COSMOS 1603 DEB, 43312

Orbit data source: Space-Track

COSMOS 1603 DEB, 43312 is space debris in LEO originally from a launch on Fri, 28 Sep 1984 UTC launched from the Tyuratam Missile And Space Complex (TTMTR). Debris objects in space refer to the collection of defunct objects orbiting the Earth. Examples of debris include non-operational satellites, rocket bodies, and fragments generated from explosions, collisions, or faulty payload assembly.

Loading next visibility...
Identifier
43312, 1984-106AE
Orbit
LEO
Last TLE update
17 hours ago
Origin
Manufacturer
Unknown
Mission
Spacecraft
Bus & Motor
Unknown
Mass
Unknown
Launch date (UTC)
1984-09-28 (41 years ago)
Launch vehicle
Unknown
Launch site
Tyuratam Missile And Space Complex (TTMTR)
Object type
Payload
Rocket body
Debris
Shape & HBR
Unknown
Radar Cross Section
Small (<0.1 m²)

Expand to show TLE details & history

TLE from 17 hours ago
0 COSMOS 1603 DEB
1 43312U 84106AE  25186.01107475  .00000909  00000-0  44150-3 0  9994
2 43312  71.0251  33.8705 0017781  37.3419 322.8939 14.20872716485357
Epoch: 2025-07-05T00:15Z
TLE epoch observation values (Epoch: 2025-07-05T00:15:56.858Z)
Latitude
-0.00001°
Longitude
106.62834°
Altitude
814.607 km
Speed
7.451 km/s
True Right ascension
02h 15m 28s
True Declination
0° 00' 00"
Sunlit
Object was in daylight at epoch
Visualization orbit readout
Latitude
61.46476°
Longitude
144.0858°
Altitude
821.492 km
Speed
7.454 km/s
Apparent Right ascension
18h 48m 55s
Apparent Declination
54° 11' 19"
Sunlit
Object is in daylight
Visualization observer readout
Local Sidereal Time
05:24:10
Azimuth
347.726° N
Elevation
5.85°
Doppler factor
1
Orbital elements
Apogee altitude
833.119 km
Perigee altitude
807.52 km
Semi-major axis
7,198.456 km
Eccentricity
0.00178
Inclination
71.0251°
RAAN
33.8705°
Arg. of periapsis
37.3419°
True anomaly
Unknown
Mean anomaly
322.8939°
Eccentric anomaly
Unknown
Mean motion
3.55373 °/min
Orbital period
101.3 mins
BSTAR
0.0004415
Loading maneuver chart data...
Loading SW <> Apogee altitude chart data...
Loading historical data...
Loading historical data...
Loading historical data...
Loading historical data...
Loading historical data...
Loading historical data...
Loading historical data...

COSMOS 1603 DEB Visibility forecast

Observer location: undefined°, undefined°

Span
Click to sort rows by Start time (UTC) header in descending order
Start Az.
Max El. time (UTC)
Max El. Az.
Max El.
End time (UTC)
End Az.
10 mins2025-07-06 00:27:48.209Z347.145° N2025-07-06 00:32:48.209Z52.9° ENE37.506°2025-07-06 00:37:48.209Z136.272° SSE
6 mins2025-07-06 02:13:48.209Z292.302° WNW2025-07-06 02:15:48.209Z266.13° W19.467°2025-07-06 02:19:48.209Z216.063° SW
9 mins2025-07-06 15:15:48.209Z210.493° SW2025-07-06 15:19:48.209Z296.33° NW43.935°2025-07-06 15:24:48.209Z19.159° NNE
|